NOAA 16 DEB, 41287

Orbit data source: Space-Track

NOAA 16 DEB, 41287 is space debris in SSO originally from a launch on Thu, 21 Sep 2000 UTC launched from the Air Force Western Test Range (AFWTR). Debris objects in space refer to the collection of defunct objects orbiting the Earth. Examples of debris include non-operational satellites, rocket bodies, and fragments generated from explosions, collisions, or faulty payload assembly.

Loading next visibility...
Identifier
41287, 2000-055GP
Orbit
SSO
Country
Flag of USUS
Related business
Manufacturer
Unknown
Mission
Spacecraft
Bus & Motor
Unknown
Mass
Unknown
Launch date (UTC)
2000-09-21 (25 years ago)
Launch vehicle
Unknown
Launch site
Air Force Western Test Range (AFWTR)
Object type
Payload
Rocket body
Debris
Shape & HBR
Unknown shape, 0.1 m
Radar Cross Section
Small (<0.1 m²)

Expand to show TLE details & history
Last TLE update: 11 hours ago

TLE from 11 hours ago
0 NOAA 16 DEB
1 41287U 00055GP  25355.14003711  .00004203  00000-0  17551-2 0  9999
2 41287  98.8725  61.8331 0027392  28.9230 331.3461 14.26509032513879
Epoch: 2025-12-21T03:21Z
TLE epoch observation values (Epoch: 2025-12-21T03:21:39.206Z)
Latitude
-0.00001°
Longitude
-78.53702°
Altitude
789.088 km
Speed
7.468 km/s
True Right ascension
04h 07m 19s
True Declination
0° 00' 00"
Sunlit
Object was in full shadow at epoch
Visualization orbit readout
Latitude
Unknown
Longitude
Unknown
Altitude
Unknown
Speed
Unknown
Apparent Right ascension
Unknown
Apparent Declination
Unknown
Sunlit
N/A
Visualization observer readout
Local Sidereal Time
12:56:00
Azimuth
Unknown
Elevation
Unknown
Doppler factor
Unknown
Orbital elements
Apogee altitude
820.245 km
Perigee altitude
780.917 km
Semi-major axis
7,178.718 km
Eccentricity
0.00274
Inclination
98.8725°
RAAN
61.8331°
Arg. of periapsis
28.923°
True anomaly
331.19513°
Mean anomaly
331.3461°
Eccentric anomaly
331.27066°
Mean motion
3.56839 °/min
Orbital period
100.89 mins
BSTAR
0.0017551
Loading maneuver chart data...
Computing Atmospheric mass density...
Loading historical data...
Loading historical data...
Loading historical data...
Loading historical data...
Loading historical data...
Loading historical data...
Loading historical data...

Documentation

Showing up to 5 results
|